Hourly Data Report for October 06, 2013

All times are specified in Local Standard Time (LST). Add 1 hour to adjust for Daylight Saving Time where and when it is observed.

TORONTO INTL A
ONTARIO

43°40'36.000" N
79°37'50.000" W
173.40 m
6158731
71624
YYZ

Download Data

Hourly Data (October 2013)
Hourly Data Report for October 6, 2013
Temp Definition
°C
Dew Point Temp Definition
°C
Rel Hum Definition
%
Wind Dir Definition
10's deg

Wind Spd Definition
km/h
Visibility Definition
km
Stn Press Definition
kPa
Hmdx Definition


Wind Chill Definition


Weather Definition


TIME
00:00 Legend Double Dagger 16.1 10.0 67 9 15 24.1 99.50     LegendNANA
01:00 Legend Double Dagger 15.7 10.3 70 8 15 24.1 99.48     Cloudy
02:00 Legend Double Dagger 15.5 10.5 72 9 14 24.1 99.47     LegendNANA
03:00 Legend Double Dagger 14.3 11.3 82 8 18 24.1 99.40     LegendNANA
04:00 Legend Double Dagger 14.0 12.1 88 9 21 24.1 99.31     Rain
05:00 Legend Double Dagger 14.2 12.6 90 9 17 24.1 99.27     Rain
06:00 Legend Double Dagger 14.5 13.1 91 9 22 16.1 99.21     LegendNANA
07:00 Legend Double Dagger 14.7 13.9 95 9 11 6.4 99.24     Rain,Fog
08:00 Legend Double Dagger 15.0 14.2 95 9 13 6.4 99.22     Fog
09:00 Legend Double Dagger 15.1 14.5 96 8 13 4.0 99.15     Drizzle,Fog
10:00 Legend Double Dagger 15.5 14.9 96 9 16 4.8 99.10     Fog
11:00 Legend Double Dagger 16.0 15.4 96 10 17 2.4 99.04     Fog
12:00 Legend Double Dagger 16.3 15.7 96 8 13 1.2 99.01     Fog
13:00 Legend Double Dagger 17.1 16.3 95 7 12 2.4 98.92     Fog
14:00 Legend Double Dagger 17.3 16.3 94 9 8 6.4 98.88     Fog
15:00 Legend Double Dagger 17.9 16.6 92 8 13 6.4 98.81     Fog
16:00 Legend Double Dagger 18.5 17.0 91 10 16 8.1 98.70     Fog
17:00 Legend Double Dagger 18.8 17.3 91 9 10 12.9 98.70     LegendNANA
18:00 Legend Double Dagger 18.4 17.3 93 7 5 16.1 98.70     LegendNANA
19:00 Legend Double Dagger 18.5 17.4 93 8 8 16.1 98.64     Cloudy
20:00 Legend Double Dagger 18.5 17.4 93 8 9 14.5 98.56     LegendNANA
21:00 Legend Double Dagger 18.4 17.4 94 9 10 11.3 98.50     Rain
22:00 Legend Double Dagger 18.3 17.5 95 12 7 12.9 98.41     Cloudy
23:00 Legend Double Dagger 18.2 17.1 93 25 7 14.5 98.50     LegendNANA

Notes on Data Quality.

Legend

  • E = Estimated
  • M = Missing
  • NA = Not Available
  • ‡ = Partner data that is not subject to review by the National Climate Archives
Date modified: